Location: Degersen
(52.2871°N, 9.5716°E)
Time: 23:33:49
(UTC+00:00)

Cosmos 371 Rocket - Pass Details

Date: 20 January 2026
Orbit: 675 x 688 km, 74.0° (Epoch: 9 February)

Event Time Altitude Azimuth Distance (km) Brightness Sun altitude
Rises 06:15:18 0° 211° (SSW) 3,042 6.5 -9.5°
Reaches altitude 10° 06:17:37 10° 214° (SW) 2,129 5.7 -9.2°
Maximum altitude 06:22:23 69° 297° (WNW) 736 3.2 -8.5°
Drops below altitude 10° 06:27:11 10° 22° (NNE) 2,136 5.8 -7.9°
Sets 06:29:31 0° 25° (NNE) 3,053 6.6 -7.5°
